Regional Weather Roundup
Issued by NWS Bismarck, ND

Current Version | Previous Version | Text Only | Print | Product List | Glossary On
Versions: 1 2 3 4 5 6 7 8 9 10 11 12 13 14 15 16 17 18 19 20 21 22 23 24 25 26 27 28 29 30 31 32 33 34 35 36 37 38 39 40 41 42 43 44 45 46 47 48 49 50
000
ASUS43 KBIS 201110
RWRBIS

NWR BROADCAST TEXT
NATIONAL WEATHER SERVICE BISMARCK ND
500 AM CST MON NOV 20 2017

NOTE: "FAIR" INDICATES FEW OR NO CLOUDS BELOW 12,000 FEET WITH NO
SIGNIFICANT WEATHER AND/OR OBSTRUCTIONS TO VISIBILITY.


CITY           SKY/WX    TMP DP  RH WIND       PRES   REMARKS
WILLISTON      CLOUDY    33  23  66 SW7       29.41F
MINOT          CLOUDY    41  22  46 SW16      29.38F
MINOT AFB      CLOUDY    39  23  51 SW17G28   29.36F
BISMARCK       CLOUDY    29  21  72 SE3       29.50F
DICKINSON      CLOUDY    37  19  48 W12       29.45F
GARRISON         N/A     31  24  75 CALM      29.43F
HETTINGER ARPT CLOUDY    34  18  52 W6        29.53F
JAMESTOWN      CLOUDY    26  22  84 S6        29.47F WCI  19
CARRINGTON     FAIR      36  23  60 SW9       29.47F
LINTON           N/A     27  19  74 SE6       29.53F WCI  20
OAKES            N/A     25  23  93 S12       29.53F WCI  14
TIOGA          CLOUDY    34  21  60 SW15      29.40F
$$

CITY           SKY/WX    TMP DP  RH WIND       PRES   REMARKS
GRAND FORKS    CLOUDY    28  24  85 S12       29.48F WCI  18
GRAND FORKS AF CLOUDY    27  23  86 S9        29.47F WCI  18
DEVILS LAKE    CLOUDY    31  25  78 SW10      29.43F
FARGO          CLOUDY    30  22  72 S10       29.53F
CANDO          FAIR      27  27 100 SW8       29.42F WCI  18
CAVALIER       FAIR      23  23 100 S9        29.42F WCI  13
GWINNER          N/A     27  23  86 SW8       29.53F WCI  18
ROLLA          FAIR      27  21  80 SW20      29.36F WCI  13
WALHALLA       FAIR      25  25 100 SE6       29.40F WCI  18
$$

CITY           SKY/WX    TMP DP  RH WIND       PRES   REMARKS
ABERDEEN       CLOUDY    21  19  92 S7        29.57F WCI  12
MOBRIDGE       CLOUDY    28  22  78 SE7       29.52F
BUFFALO          N/A     42  16  34 W16       29.48F
RAPID CITY     CLOUDY    32  16  51 S3        29.60F
GLASGOW        CLOUDY    49  17  28 W18       29.39F
SIDNEY         CLOUDY    36  22  56 SW13      29.43F
WOLF POINT     CLOUDY    31  21  66 W3        29.40F
GLENDIVE       CLOUDY    44  19  36 SW14      29.47F
MILES CITY     CLOUDY    41  22  46 W13       29.50F
BAKER          CLOUDY    39  20  46 SW15      29.52F
$$

CITY           SKY/WX    TMP DP  RH WIND       PRES   REMARKS
BILLINGS       CLOUDY    45  14  28 SW10      29.59F
GREAT FALLS    CLOUDY    46   9  22 SW20      29.50S
REGINA         CLOUDY    34  25  69 SW18      29.25F
ESTEVAN        PTCLDY    30  21  69 SW10      29.34F
$$





USA.gov is the U.S. government's official web portal to all federal, state and local government web resources and services.